Weather History for KCHA - October, 2011

Change the Weather History Date:

Thursday, October 27, 2011

  Actual Average Record
Temperature  
Mean Temperature 61 °F 58 °F  
Max Temperature 73 °F 70 °F 86 °F (1940)
Min Temperature 49 °F 46 °F 26 °F (1942)
Degree Days  
Heating Degree Days 4 8  
Month to date heating degree days 114 123  
Since 1 July heating degree days 117 138  
Cooling Degree Days 0 1  
Month to date cooling degree days 16 48  
Year to date cooling degree days 2113 1737  
Growing Degree Days 10 (Base 50)    
Moisture  
Dew Point 51 °F    
Average Humidity 75    
Maximum Humidity 93    
Minimum Humidity 57    
Precipitation  
Precipitation 0.04 in 0.11 in 1.53 in (2006)
Month to date precipitation 2.32 2.83  
Year to date precipitation 49.74 42.13  
Snow  
Snow 0.00 in 0.00 in - ()
Month to date snowfall 0.0 0.0  
Since 1 July snowfall 0.0 0.0  
Since 1 September snowfall 0.0 0.0  
Snow Depth 0.00 in    
Sea Level Pressure  
Sea Level Pressure 29.94 in    
Wind  
Wind Speed 6 mph (WNW)    
Max Wind Speed 18 mph    
Max Gust Speed 22 mph    
Visibility 10 miles    
Events Rain    
T = Trace of Precipitation, MM = Missing Value Source: NWS Daily Summary

Daily Weather History Graph

Daily Weather History Graph

Search for Another Location

Airport or City:

Trip Planner

Search our weather history database for the weather conditions in past years. The results will help you decide how hot, cold, wet, or windy it might be!

Date:

Astronomy

Oct. 27, 2011 Rise Set
Actual Time 7:56 AM EDT 6:51 PM EDT
Civil Twilight 7:31 AM EDT 7:17 PM EDT
Nautical Twilight 7:01 AM EDT 7:47 PM EDT
Astronomical Twilight 6:31 AM EDT 8:16 PM EDT
Moon 8:54 AM EDT (10/27) 7:25 PM EDT (10/27)
Length of Visible Light 11h 46m
Length of Day
10h 54m
New Moon, 1% of the Moon is Illuminated
Oct 27
New Moon
Nov 2
First Quarter
Nov 10
Full
Nov 18
Last Quarter
Nov 25
New

Hourly Weather History & Observations

Time (EDT) Temp. Dew Point Humidity Pressure Visibility Wind Dir Wind Speed Gust Speed Precip Events Conditions
12:53 AM 55.9 °F 46.9 °F 72% 29.95 in 10.0 mi South 4.6 mph - N/A   Scattered Clouds
1:53 AM 53.1 °F 46.9 °F 80% 29.94 in 10.0 mi Calm Calm - N/A   Scattered Clouds
2:53 AM 52.0 °F 46.9 °F 83% 29.93 in 10.0 mi SE 3.5 mph - N/A   Scattered Clouds
3:53 AM 50.0 °F 46.4 °F 87% 29.93 in 10.0 mi Calm Calm - N/A   Scattered Clouds
4:53 AM 50.0 °F 46.0 °F 86% 29.91 in 10.0 mi Calm Calm - N/A   Partly Cloudy
5:53 AM 48.9 °F 46.0 °F 90% 29.91 in 10.0 mi SE 3.5 mph - N/A   Partly Cloudy
6:53 AM 51.1 °F 46.9 °F 86% 29.90 in 10.0 mi WSW 3.5 mph - N/A   Partly Cloudy
7:53 AM 51.8 °F 48.2 °F 88% 29.92 in 10.0 mi Calm Calm - N/A   Scattered Clouds
8:53 AM 55.0 °F 50.0 °F 83% 29.92 in 10.0 mi South 5.8 mph - N/A   Mostly Cloudy
9:53 AM 59.0 °F 51.1 °F 75% 29.92 in 10.0 mi SW 3.5 mph - N/A   Mostly Cloudy
10:53 AM 62.1 °F 53.1 °F 72% 29.92 in 10.0 mi South 3.5 mph - N/A   Mostly Cloudy
11:53 AM 69.1 °F 54.0 °F 58% 29.90 in 10.0 mi SSW 5.8 mph 17.3 mph N/A   Mostly Cloudy
12:53 PM 69.1 °F 54.0 °F 58% 29.88 in 10.0 mi SSW 6.9 mph - N/A   Mostly Cloudy
1:53 PM 70.0 °F 55.0 °F 59% 29.87 in 10.0 mi SSW 3.5 mph - N/A   Mostly Cloudy
2:53 PM 71.1 °F 55.9 °F 59% 29.86 in 10.0 mi SW 6.9 mph - N/A   Mostly Cloudy
3:53 PM 71.1 °F 55.9 °F 59% 29.86 in 10.0 mi WNW 9.2 mph - N/A   Mostly Cloudy
4:53 PM 69.1 °F 55.9 °F 63% 29.88 in 10.0 mi NW 9.2 mph - N/A   Mostly Cloudy
5:53 PM 63.0 °F 54.0 °F 72% 29.90 in 10.0 mi NNW 15.0 mph - N/A   Mostly Cloudy
6:53 PM 60.1 °F 52.0 °F 75% 29.94 in 10.0 mi NNW 9.2 mph - N/A   Overcast
7:53 PM 59.0 °F 50.0 °F 72% 29.96 in 10.0 mi North 10.4 mph - N/A   Overcast
8:53 PM 55.9 °F 50.0 °F 80% 29.99 in 10.0 mi NNE 11.5 mph - 0.00 in Rain Light Rain
9:53 PM 54.0 °F 51.1 °F 90% 30.02 in 6.0 mi North 9.2 mph - 0.01 in Rain Light Rain
10:22 PM 53.6 °F 51.8 °F 94% 30.03 in 6.0 mi North 6.9 mph - 0.01 in Rain Light Rain
10:53 PM 53.1 °F 51.1 °F 93% 30.02 in 10.0 mi North 10.4 mph - 0.03 in   Overcast
11:04 PM 53.6 °F 50.0 °F 88% 30.02 in 10.0 mi NNE 9.2 mph - 0.00 in Rain Light Rain
11:25 PM 53.6 °F 50.0 °F 88% 30.02 in 10.0 mi North 8.1 mph - 0.00 in   Overcast
11:53 PM 53.1 °F 50.0 °F 89% 30.01 in 10.0 mi North 8.1 mph - 0.00 in   Overcast